Regional Weather Roundup
Issued by NWS

Home | Current Version | Previous Version | Graphics & Text | Print | Product List | Glossary On
Versions: 1 2 3 4 5 6 7 8 9 10 11 12 13 14 15 16 17 18 19 20 21 22 23 24 25 26 27 28 29 30 31 32 33 34 35 36 37 38 39 40 41 42 43 44 45 46 47 48 49 50
065
ASUS45 KCYS 211210
RWRWY

WYOMING REGIONAL WEATHER ROUNDUP
NATIONAL WEATHER SERVICE CHEYENNE WY
600 AM MDT FRI JUL 21 2017

NOTE:  "FAIR" INDICATES FEW OR NO CLOUDS BELOW 12,000 FEET
WITH NO SIGNIFICANT WEATHER AND/OR OBSTRUCTIONS TO VISIBILITY.

WYZ001-211300-
YELLOWSTONE NATIONAL PARK

CITY           SKY/WX    TMP DP  RH WIND       PRES   REMARKS
LK YELLOWSTONE   N/A     37  37 100 CALM      30.31R
6HR MIN TEMP:  37; 6HR MAX TEMP:  47;

W YELLOWSTONE  NOT AVBL

$$
WYZ002>013-054>058-071-098>099-211300-
NORTHERN WYOMING

CITY           SKY/WX    TMP DP  RH WIND       PRES   REMARKS
JACKSON        FAIR      45  45 100 CALM      30.23R
CODY           FAIR      58  47  66 SW3       30.10R
GREYBULL       FAIR      57  56  96 VRB3      30.00R
6HR MIN TEMP:  57; 6HR MAX TEMP:  65;

WORLAND        FAIR      54  54 100 CALM      30.01R
6HR MIN TEMP:  53; 6HR MAX TEMP:  63;

SHERIDAN       FAIR      61  52  72 CALM      29.99R
6HR MIN TEMP:  58; 6HR MAX TEMP:  72;

BUFFALO        FAIR      70  47  43 NW17G26   30.03R
6HR MIN TEMP:  60; 6HR MAX TEMP:  74;

GILLETTE       FAIR      69  54  58 W15       29.94R
6HR MIN TEMP:  67; 6HR MAX TEMP:  70;

HULETT         FAIR      66  59  77 W3        29.95R
NEWCASTLE      FAIR      64  55  72 CALM      29.96S

$$
WYZ014>020-022>026-101>103-211300-
CENTRAL WYOMING

CITY           SKY/WX    TMP DP  RH WIND       PRES   REMARKS
BIG PINEY      TSTM      53  53 100 W7        30.28R
6HR MIN TEMP:  53; 6HR MAX TEMP:  58; 6HR PCP:  0.37;

PINEDALE       FAIR      55  54  94 SE3       30.29R
DUBOIS         FAIR      46  39  76 NW10      30.25R
LANDER         FAIR      59  55  87 CALM      30.14R
6HR MIN TEMP:  59; 6HR MAX TEMP:  64;

RIVERTON       MOCLDY    61  56  83 NW5       30.11S
6HR MIN TEMP:  59; 6HR MAX TEMP:  66;

CASPER         FAIR      64  53  67 W9        30.09R
6HR MIN TEMP:  63; 6HR MAX TEMP:  69;

DOUGLAS        FAIR      64  56  75 NW13      30.03R
6HR MIN TEMP:  63; 6HR MAX TEMP:  67;


$$
WYZ021-027>030-104>119-211300-
SOUTHERN WYOMING

CITY           SKY/WX    TMP DP  RH WIND       PRES   REMARKS
EVANSTON       CLOUDY    62  51  67 CALM      30.25R
6HR MIN TEMP:  61; 6HR MAX TEMP:  70;

KEMMERER         N/A     55  50  82 NW8       30.27R
FORT BRIDGER   PTSUNNY   63  52  67 SW5       30.27S
ROCK SPRINGS   FAIR      61  50  67 VRB7      30.22R
6HR MIN TEMP:  58; 6HR MAX TEMP:  64; 6HR PCP: TRACE;

RAWLINS        FAIR      57  52  83 CALM      30.24R
6HR MIN TEMP:  57; 6HR MAX TEMP:  62; 6HR PCP:  0.01;

SARATOGA       FAIR      57  50  77 SE7       30.26R
LARAMIE        FAIR      54  51  90 SE8       30.24R
6HR MIN TEMP:  53; 6HR MAX TEMP:  60;

CHEYENNE       FAIR      63  52  67 SW5       30.13S
6HR MIN TEMP:  62; 6HR MAX TEMP:  67;

TORRINGTON     FAIR      63  61  93 SE5       29.98R
6HR MIN TEMP:  63; 6HR MAX TEMP:  73; 6HR PCP: TRACE;

PINE BLUFFS    FAIR      59  54  82 S6        30.07S

$$




USA.gov is the U.S. government's official web portal to all federal, state and local government web resources and services.